TimeEDT,TemperatureF,Dew PointF,Humidity,Sea Level PressureIn,VisibilityMPH,Wind Direction,Wind SpeedMPH,Gust SpeedMPH,PrecipitationIn,Events,Conditions,WindDirDegrees,DateUTC
12:15 AM,75.2,57.2,53,29.74,10.0,SSE,11.5,17.3,N/A,,Clear,160,2013-04-11 04:15:00
12:35 AM,75.2,57.2,53,29.74,10.0,South,15.0,20.7,N/A,,Clear,170,2013-04-11 04:35:00
12:55 AM,75.2,55.4,50,29.75,10.0,South,16.1,-,N/A,,Clear,180,2013-04-11 04:55:00
1:15 AM,75.2,55.4,50,29.74,10.0,South,12.7,21.9,N/A,,Partly Cloudy,180,2013-04-11 05:15:00
1:35 AM,73.4,55.4,53,29.73,10.0,South,10.4,-,N/A,,Clear,170,2013-04-11 05:35:00
1:55 AM,73.4,55.4,53,29.73,10.0,South,10.4,16.1,N/A,,Clear,170,2013-04-11 05:55:00
2:35 AM,75.2,55.4,50,29.74,10.0,South,15.0,21.9,N/A,,Clear,190,2013-04-11 06:35:00
2:55 AM,69.8,57.2,64,29.76,10.0,West,19.6,-,N/A,Thunderstorm,Thunderstorm,280,2013-04-11 06:55:00
3:15 AM,66.2,60.8,83,29.77,10.0,WSW,9.2,-,0.05,Thunderstorm,Thunderstorm,240,2013-04-11 07:15:00
3:35 AM,64.4,60.8,88,29.79,10.0,West,15.0,-,0.18,Thunderstorm,Thunderstorm,260,2013-04-11 07:35:00
3:55 AM,64.4,60.8,88,29.78,10.0,WNW,5.8,-,0.24,Thunderstorm,Mostly Cloudy,300,2013-04-11 07:55:00
4:15 AM,62.6,59.0,88,29.77,7.0,North,8.1,-,0.02,,Mostly Cloudy,10,2013-04-11 08:15:00
4:35 AM,60.8,57.2,88,29.75,6.0,NE,9.2,-,0.03,,Mostly Cloudy,50,2013-04-11 08:35:00
4:55 AM,60.8,57.2,88,29.76,9.0,NE,9.2,-,0.09,Thunderstorm,Mostly Cloudy,40,2013-04-11 08:55:00
5:15 AM,60.8,57.2,88,29.76,8.0,East,5.8,-,0.03,Thunderstorm,Overcast,100,2013-04-11 09:15:00
5:35 AM,60.8,57.2,88,29.75,5.0,East,12.7,-,0.10,,Overcast,100,2013-04-11 09:35:00
5:55 AM,62.6,57.2,82,29.68,9.0,ESE,18.4,38.0,0.15,Thunderstorm,Mostly Cloudy,120,2013-04-11 09:55:00
6:15 AM,64.4,59.0,83,29.66,10.0,SE,9.2,17.3,N/A,,Partly Cloudy,140,2013-04-11 10:15:00
6:35 AM,66.2,59.0,78,29.65,10.0,SSE,24.2,42.6,N/A,,Partly Cloudy,160,2013-04-11 10:35:00
6:55 AM,64.4,59.0,83,29.64,10.0,SE,27.6,41.4,N/A,,Scattered Clouds,140,2013-04-11 10:55:00
7:15 AM,64.4,59.0,83,29.69,10.0,South,16.1,26.5,N/A,,Clear,170,2013-04-11 11:15:00
7:35 AM,64.4,59.0,83,29.70,10.0,South,17.3,25.3,N/A,,Clear,170,2013-04-11 11:35:00
7:55 AM,64.4,57.2,77,29.69,10.0,SSE,13.8,25.3,N/A,,Clear,160,2013-04-11 11:55:00
8:15 AM,64.4,57.2,77,29.69,10.0,South,15.0,21.9,N/A,,Clear,170,2013-04-11 12:15:00
8:35 AM,64.4,57.2,77,29.71,10.0,South,12.7,-,N/A,,Clear,190,2013-04-11 12:35:00
9:35 AM,64.4,57.2,77,29.70,10.0,South,10.4,19.6,N/A,,Clear,170,2013-04-11 13:35:00
9:55 AM,64.4,57.2,77,29.70,10.0,South,16.1,19.6,N/A,,Partly Cloudy,170,2013-04-11 13:55:00
10:15 AM,64.4,57.2,77,29.67,10.0,SSE,17.3,27.6,N/A,,Scattered Clouds,160,2013-04-11 14:15:00
10:35 AM,64.4,57.2,77,29.71,10.0,WSW,12.7,20.7,N/A,,Mostly Cloudy,240,2013-04-11 14:35:00
10:55 AM,64.4,57.2,77,29.72,10.0,SSW,12.7,20.7,N/A,,Overcast,210,2013-04-11 14:55:00
11:15 AM,64.4,59.0,83,29.73,10.0,South,15.0,24.2,N/A,,Mostly Cloudy,190,2013-04-11 15:15:00
11:35 AM,64.4,59.0,83,29.73,10.0,South,16.1,-,N/A,,Partly Cloudy,180,2013-04-11 15:35:00
11:55 AM,64.4,59.0,83,29.74,10.0,South,17.3,24.2,N/A,,Partly Cloudy,190,2013-04-11 15:55:00
12:15 PM,64.4,59.0,83,29.74,10.0,SSW,17.3,21.9,N/A,,Mostly Cloudy,200,2013-04-11 16:15:00
12:35 PM,64.4,59.0,83,29.73,10.0,South,15.0,21.9,N/A,,Mostly Cloudy,180,2013-04-11 16:35:00
1:15 PM,64.4,59.0,83,29.71,10.0,South,13.8,19.6,N/A,,Mostly Cloudy,190,2013-04-11 17:15:00
1:35 PM,64.4,59.0,83,29.71,10.0,South,12.7,17.3,N/A,,Partly Cloudy,180,2013-04-11 17:35:00
1:55 PM,62.6,59.0,88,29.72,9.0,South,13.8,-,0.01,,Mostly Cloudy,190,2013-04-11 17:55:00
2:15 PM,62.6,57.2,82,29.71,10.0,South,12.7,17.3,0.04,,Mostly Cloudy,190,2013-04-11 18:15:00
2:35 PM,62.6,57.2,82,29.68,10.0,SSE,8.1,-,0.06,,Overcast,160,2013-04-11 18:35:00
2:55 PM,62.6,57.2,82,29.67,10.0,SE,9.2,-,0.06,,Overcast,140,2013-04-11 18:55:00
3:15 PM,62.6,57.2,82,29.67,10.0,SSE,8.1,-,0.03,,Overcast,160,2013-04-11 19:15:00
3:35 PM,62.6,57.2,82,29.67,10.0,SSE,8.1,-,0.06,,Mostly Cloudy,160,2013-04-11 19:35:00
3:55 PM,62.6,57.2,82,29.68,9.0,South,10.4,17.3,0.09,,Overcast,170,2013-04-11 19:55:00
4:15 PM,60.8,57.2,88,29.67,9.0,South,10.4,-,0.03,,Overcast,190,2013-04-11 20:15:00
4:35 PM,60.8,57.2,88,29.66,10.0,South,8.1,-,0.05,,Overcast,170,2013-04-11 20:35:00
4:55 PM,60.8,57.2,88,29.66,8.0,South,11.5,-,0.09,,Mostly Cloudy,180,2013-04-11 20:55:00
5:15 PM,60.8,55.4,82,29.63,10.0,SSE,10.4,-,0.05,,Mostly Cloudy,160,2013-04-11 21:15:00
5:35 PM,60.8,55.4,82,29.62,10.0,SSE,10.4,-,0.10,,Mostly Cloudy,160,2013-04-11 21:35:00
5:55 PM,60.8,55.4,82,29.61,9.0,SSE,11.5,16.1,0.13,,Mostly Cloudy,150,2013-04-11 21:55:00
6:15 PM,59.0,55.4,88,29.62,9.0,South,8.1,-,0.03,,Overcast,180,2013-04-11 22:15:00
6:35 PM,59.0,55.4,88,29.64,10.0,South,8.1,-,0.04,,Overcast,190,2013-04-11 22:35:00
6:55 PM,59.0,55.4,88,29.56,10.0,East,9.2,-,0.04,,Mostly Cloudy,80,2013-04-11 22:55:00
7:15 PM,59.0,55.4,88,29.60,10.0,WSW,5.8,-,N/A,,Scattered Clouds,240,2013-04-11 23:15:00
7:35 PM,55.4,51.8,88,29.62,10.0,WNW,11.5,25.3,N/A,,Overcast,290,2013-04-11 23:35:00
7:55 PM,53.6,51.8,94,29.60,9.0,WNW,10.4,-,0.01,,Overcast,290,2013-04-11 23:55:00
8:15 PM,53.6,50.0,88,29.60,3.0,WNW,10.4,-,N/A,,Overcast,300,2013-04-12 00:15:00
8:35 PM,53.6,50.0,88,29.60,5.0,WNW,10.4,-,N/A,,Overcast,290,2013-04-12 00:35:00
8:55 PM,53.6,50.0,88,29.61,10.0,WNW,8.1,-,N/A,,Overcast,300,2013-04-12 00:55:00
9:15 PM,53.6,48.2,82,29.63,10.0,WNW,12.7,16.1,N/A,,Overcast,290,2013-04-12 01:15:00
9:35 PM,51.8,48.2,88,29.64,10.0,WNW,15.0,-,N/A,,Overcast,290,2013-04-12 01:35:00
9:55 PM,51.8,46.4,82,29.65,10.0,West,11.5,-,N/A,,Overcast,280,2013-04-12 01:55:00
10:15 PM,51.8,46.4,82,29.67,10.0,West,15.0,-,N/A,,Overcast,280,2013-04-12 02:15:00
10:35 PM,51.8,46.4,82,29.67,9.0,WNW,18.4,21.9,N/A,,Overcast,290,2013-04-12 02:35:00
10:55 PM,50.0,44.6,82,29.67,10.0,WNW,20.7,24.2,N/A,,Overcast,290,2013-04-12 02:55:00
11:15 PM,50.0,44.6,82,29.66,10.0,WNW,13.8,18.4,N/A,,Overcast,290,2013-04-12 03:15:00
11:35 PM,48.2,44.6,87,29.67,10.0,WNW,15.0,21.9,N/A,,Overcast,300,2013-04-12 03:35:00
11:55 PM,48.2,42.8,82,29.68,10.0,WNW,11.5,-,N/A,,Overcast,300,2013-04-12 03:55:00